DW6632 Weather Reports


time (UTC)temp
F
wind
direction
speed
knots
gust
knots
rain 1hr
in
rain 24hr
in
rain mn
in
humidity
%
barometer
mb
20260506203204 61 348 0.0 2.6 0.00 0.00 0.00 77 1011.9
20260506201705 62 332 0.9 2.6 0.00 0.00 0.00 75 1011.7
20260506201205 62 307 0.9 2.6 0.00 0.00 0.00 75 1011.7
20260506193705 63 5 0.9 2.6 0.00 0.00 0.00 73 1011.1
20260506193205 63 252 0.0 2.6 0.00 0.00 0.00 71 1011.1
20260506191705 63 87 0.9 1.7 0.00 0.00 0.00 71 1010.9
20260506191205 64 86 0.0 0.0 0.00 0.00 0.00 70 1010.9
20260506190705 64 86 0.0 2.6 0.00 0.00 0.00 70 1010.7
20260506184705 65 103 0.0 0.0 0.00 0.00 0.00 68 1010.6
20260506184205 65 103 0.0 0.0 0.00 0.00 0.00 68 1010.6
20260506183705 65 103 0.0 0.0 0.00 0.00 0.00 67 1010.6
20260506183205 65 104 0.0 0.0 0.00 0.00 0.00 67 1010.5
20260506181705 66 115 0.9 2.6 0.00 0.00 0.00 66 1010.5
20260506181205 67 85 1.7 2.6 0.00 0.00 0.00 64 1010.4
20260506180705 67 113 0.9 2.6 0.00 0.00 0.00 64 1010.3
20260506180205 67 131 0.0 2.6 0.00 0.00 0.00 64 1010.3
20260506174705 67 181 2.6 6.1 0.00 0.00 0.00 63 1010.3
20260506174205 67 164 1.7 4.3 0.00 0.00 0.00 63 1010.3
20260506173705 67 165 3.5 5.2 0.00 0.00 0.00 62 1010.3
20260506173205 67 171 3.5 6.1 0.00 0.00 0.00 62 1010.3
20260506171705 68 154 2.6 6.1 0.00 0.00 0.00 61 1010.3
20260506171205 69 168 2.6 7.8 0.00 0.00 0.00 60 1010.3
20260506170705 69 81 0.9 2.6 0.00 0.00 0.00 60 1010.2
20260506170205 69 118 0.0 4.3 0.00 0.00 0.00 60 1010.3
20260506164706 70 126 0.0 2.6 0.00 0.00 0.00 59 1010.2
20260506164205 70 133 0.9 2.6 0.00 0.00 0.00 59 1010.1
20260506163705 70 185 1.7 5.2 0.00 0.00 0.00 58 1010.2
20260506161205 71 73 1.7 5.2 0.00 0.00 0.00 57 1010.1
20260506160705 71 72 1.7 2.6 0.00 0.00 0.00 57 1010.1
20260506160205 71 54 1.7 7.0 0.00 0.00 0.00 58 1010.1
20260506154204 71 87 0.9 2.6 0.00 0.00 0.00 61 1010.1
20260506153705 71 44 1.7 4.3 0.00 0.00 0.00 58 1010.1
20260506151704 70 80 1.7 2.6 0.00 0.00 0.00 56 1010.1
20260506151205 70 124 0.0 6.1 0.00 0.00 0.00 57 1010.0
20260506150705 70 117 1.7 4.3 0.00 0.00 0.00 57 1010.0
20260506150206 70 114 2.6 8.7 0.00 0.00 0.00 58 1010.0
20260506144205 71 81 2.6 7.8 0.00 0.00 0.00 55 1010.2
20260506143705 71 79 2.6 7.0 0.00 0.00 0.00 55 1010.2
20260506143205 71 86 3.5 10.4 0.00 0.00 0.00 56 1010.2
20260506141705 70 93 2.6 7.0 0.00 0.00 0.00 57 1010.4
20260506141205 71 104 3.5 10.4 0.00 0.00 0.00 56 1010.4
20260506140705 72 106 2.6 10.4 0.00 0.00 0.00 55 1010.3
20260506140205 71 81 2.6 10.4 0.00 0.00 0.00 57 1010.2
20260506134705 71 176 2.6 7.0 0.00 0.00 0.00 55 1010.5
20260506134205 71 136 4.3 10.4 0.00 0.00 0.00 55 1010.5
20260506133705 71 91 4.3 7.8 0.00 0.00 0.00 55 1010.5
20260506133205 71 137 3.5 11.3 0.00 0.00 0.00 56 1010.5
20260506131705 71 98 2.6 6.1 0.00 0.00 0.00 54 1010.6
20260506131205 72 106 1.7 6.1 0.00 0.00 0.00 54 1010.5
20260506130704 72 107 3.5 7.8 0.00 0.00 0.00 53 1010.6
20260506130205 72 41 2.6 6.1 0.00 0.00 0.00 55 1010.6
20260506124205 71 117 2.6 6.1 0.00 0.00 0.00 55 1010.8
20260506123705 72 102 2.6 6.1 0.00 0.00 0.00 54 1010.7
20260506123205 72 79 2.6 6.1 0.00 0.00 0.00 53 1010.8
20260506121705 71 170 1.7 6.1 0.00 0.00 0.00 54 1011.0
20260506121204 71 106 1.7 7.0 0.00 0.00 0.00 55 1011.1
20260506120705 71 55 0.9 4.3 0.00 0.00 0.00 56 1011.2
20260506120205 71 154 3.5 7.8 0.00 0.00 0.00 54 1011.2
20260506114704 71 80 1.7 2.6 0.00 0.00 0.00 55 1011.3
20260506114205 71 89 1.7 5.2 0.00 0.00 0.00 56 1011.3
20260506111704 69 145 1.7 6.1 0.00 0.00 0.00 58 1011.7
20260506111205 68 100 1.7 2.6 0.00 0.00 0.00 60 1011.8
20260506110205 68 304 0.9 2.6 0.00 0.00 0.00 61 1011.8
20260506104704 66 10 0.9 2.6 0.00 0.00 0.00 64 1011.9
20260506104205 66 18 1.7 4.3 0.00 0.00 0.00 63 1012.0
20260506103705 67 11 1.7 4.3 0.00 0.00 0.00 63 1012.0
20260506103204 67 12 2.6 4.3 0.00 0.00 0.00 62 1012.0
20260506101205 67 87 0.9 2.6 0.00 0.00 0.00 63 1012.3
20260506100705 67 19 0.9 2.6 0.00 0.00 0.00 64 1012.3
20260506094705 66 19 0.9 2.6 0.00 0.00 0.00 64 1012.5
20260506093705 66 70 0.9 2.6 0.00 0.00 0.00 65 1012.4
20260506093205 66 22 0.9 4.3 0.00 0.00 0.00 64 1012.3
20260506091205 65 31 0.9 2.6 0.00 0.00 0.00 68 1012.2
20260506090705 64 5 0.9 2.6 0.00 0.00 0.00 69 1012.2
20260506090205 64 325 0.0 4.3 0.00 0.00 0.00 69 1012.2
20260506084704 64 18 0.9 4.3 0.00 0.00 0.00 70 1012.3
20260506084205 63 25 1.7 2.6 0.00 0.00 0.00 71 1012.2
20260506083705 63 21 0.9 2.6 0.00 0.00 0.00 72 1012.2
20260506083205 63 9 0.0 2.6 0.00 0.00 0.00 73 1012.3
20260506081705 63 5 0.0 0.0 0.00 0.00 0.00 73 1012.2
20260506081205 63 10 0.9 2.6 0.00 0.00 0.00 74 1012.2
20260506080704 63 355 1.7 2.6 0.00 0.00 0.00 74 1012.1
20260506080204 63 13 1.7 2.6 0.00 0.00 0.00 73 1012.2
20260506073205 63 14 0.9 2.6 0.00 0.00 0.00 76 1012.2
20260506071705 62 301 0.0 0.0 0.00 0.00 0.00 77 1012.2
20260506071205 62 275 0.0 0.0 0.00 0.00 0.00 77 1012.2
20260506070705 62 275 0.0 0.0 0.00 0.00 0.00 79 1012.2
20260506070205 61 274 0.0 0.0 0.00 0.00 0.00 80 1012.1
20260506061705 58 273 0.0 0.0 0.00 0.00 0.00 86 1012.1
20260506061205 58 273 0.0 0.0 0.00 0.00 0.00 87 1012.1
20260506060204 58 273 0.0 0.0 0.00 0.00 0.00 87 1012.1
20260506051205 58 273 0.0 0.0 0.00 0.00 0.00 86 1011.7
20260506050705 58 273 0.0 0.0 0.00 0.00 0.00 86 1011.7
20260506050205 58 273 0.0 0.0 0.00 0.00 0.00 86 1011.6
20260506044705 58 273 0.0 0.0 0.00 0.00 0.00 86 1011.5
20260506044205 58 273 0.0 0.0 0.00 0.00 0.00 86 1011.5
20260506043704 58 273 0.0 0.0 0.00 0.00 0.00 86 1011.5
20260506043205 58 273 0.0 0.0 0.00 0.00 0.00 86 1011.5
20260506040704 58 273 0.0 0.0 0.00 0.00 0.00 85 1011.5
20260506040205 58 273 0.0 0.0 0.00 0.00 0.00 85 1011.5
20260506034705 58 271 0.0 0.0 0.00 0.00 0.00 84 1011.5
20260506034204 58 271 0.0 0.0 0.00 0.00 0.00 84 1011.5
20260506033204 59 271 0.0 0.0 0.00 0.00 0.00 84 1011.5
20260506031705 59 271 0.0 0.0 0.00 0.00 0.00 83 1011.5
20260506031205 59 271 0.0 0.0 0.00 0.00 0.00 83 1011.5
20260506030704 59 271 0.0 0.0 0.00 0.00 0.00 82 1011.5
20260506030205 60 271 0.0 0.0 0.00 0.00 0.00 82 1011.5
20260506024705 60 270 0.0 0.0 0.00 0.00 0.00 81 1011.4
20260506023704 60 270 0.0 0.0 0.00 0.00 0.00 80 1011.5
20260506023204 60 270 0.0 0.0 0.00 0.00 0.00 80 1011.6
20260506021705 60 270 0.0 0.0 0.00 0.00 0.00 81 1011.6
20260506021205 60 270 0.0 0.0 0.00 0.00 0.00 81 1011.6
20260506020705 60 270 0.0 0.0 0.00 0.00 0.00 81 1011.6
20260506020205 60 270 0.0 1.7 0.00 0.00 0.00 81 1011.6
20260506014704 60 271 0.0 0.0 0.00 0.00 0.00 79 1011.5
20260506014205 60 271 0.0 0.0 0.00 0.00 0.00 78 1011.5
20260506013705 61 271 0.0 0.0 0.00 0.00 0.00 78 1011.6
20260506013204 61 271 0.0 0.0 0.00 0.00 0.00 78 1011.6
20260506011705 61 271 0.0 0.0 0.00 0.00 0.00 77 1011.5
20260506011205 61 271 0.0 0.0 0.00 0.00 0.00 77 1011.6
20260506010705 61 271 0.0 0.0 0.00 0.00 0.00 78 1011.7
20260506010204 61 267 0.0 0.0 0.00 0.00 0.00 78 1011.7
20260506004705 61 267 0.9 1.7 0.00 0.00 0.00 79 1011.9
20260506004205 61 267 0.9 1.7 0.00 0.00 0.00 78 1011.9
20260506003704 61 267 0.0 1.7 0.00 0.00 0.00 78 1011.9
20260506003205 61 267 0.9 2.6 0.00 0.00 0.00 78 1012.0
20260506001704 61 273 0.0 0.0 0.00 0.00 0.00 77 1012.1
20260506001205 61 273 0.0 1.7 0.00 0.00 0.00 77 1012.1
20260506000205 61 294 1.7 2.6 0.00 0.00 0.00 77 1012.2
20260505234204 62 302 1.7 2.6 0.00 0.00 0.00 78 1012.2
20260505233704 62 307 1.7 4.3 0.00 0.00 0.00 78 1012.2
20260505233205 62 321 2.6 4.3 0.00 0.00 0.00 78 1012.1
20260505231704 62 317 0.9 2.6 0.00 0.00 0.00 78 1012.1
20260505231205 62 332 0.0 2.6 0.00 0.00 0.00 78 1012.1
20260505230705 62 17 0.9 2.6 0.00 0.00 0.00 78 1012.1
20260505230204 62 21 0.9 8.7 0.00 0.00 0.00 78 1012.1
20260505224705 62 15 2.6 8.7 0.00 0.00 0.00 79 1012.1
20260505224204 62 91 2.6 7.0 0.00 0.00 0.00 80 1012.0
20260505223704 62 22 3.5 7.8 0.00 0.00 0.00 80 1012.0
20260505223204 62 350 5.2 10.4 0.00 0.00 0.00 81 1012.0
20260505221205 63 15 2.6 6.1 0.00 0.00 0.00 81 1012.0
20260505220705 63 338 4.3 10.4 0.00 0.00 0.00 81 1012.0
20260505220205 63 12 2.6 8.7 0.00 0.00 0.00 82 1012.0
20260505214704 63 338 4.3 7.8 0.00 0.00 0.00 83 1011.9
20260505213205 64 326 3.5 8.7 0.00 0.00 0.00 83 1011.7
20260505211704 65 16 2.6 8.7 0.00 0.00 0.00 82 1011.5
20260505211205 65 32 1.7 2.6 0.00 0.00 0.00 81 1011.4
20260505210705 65 31 2.6 5.2 0.00 0.00 0.00 80 1011.3